Wind_Speed
39 42 42 41 43 45 44 40 34 36 36 37 32 28 32 32 33 36 33 37 42 47 53 50 51 58 58 56 57 56 58 61 66 66 69 63 62 72 79 85 103 112 104 98 97
28 31 34 37 38 37 36 35 37 39 41 38 31 32 32 33 34 32 35 40 45 49 51 51 54 57 57 54 56 53 57 59 61 57 58 57 60 70 79 87 96 104 106 103 99
37 34 32 30 31 31 32 31 32 32 34 34 33 31 32 33 30 33 39 43 46 48 48 50 58 60 56 54 56 54 54 55 56 51 47 48 52 62 79 87 93 102 100 105 101
53 47 45 36 33 31 30 31 32 30 30 29 28 28 24 26 30 35 39 43 46 48 47 53 59 58 57 55 53 54 53 55 54 45 38 38 43 58 74 91 93 100 97 99 100
56 56 60 52 37 32 32 32 31 29 28 28 26 23 27 32 35 36 41 42 48 47 48 56 59 61 58 53 54 54 55 56 56 43 33 30 39 52 69 89 92 95 96 93 99
58 58 62 60 52 37 32 29 31 28 26 25 24 24 26 30 33 36 40 44 46 47 49 57 59 60 58 55 54 55 53 57 55 46 29 25 32 47 64 86 92 98 95 94 94
64 65 62 59 63 49 35 27 30 31 28 28 26 28 28 30 32 38 39 43 46 49 53 56 59 60 58 58 58 56 60 58 53 42 26 20 28 41 56 86 92 93 92 90 87
63 66 68 61 65 64 52 33 27 30 24 24 24 27 29 31 34 37 40 42 45 47 52 55 59 62 65 63 59 56 58 60 57 39 23 16 24 38 55 86 92 93 94 87 82
63 65 70 69 66 58 58 45 35 31 23 23 23 26 29 31 33 36 37 39 42 48 52 57 57 61 66 67 70 70 63 62 61 43 23 12 23 38 57 87 93 93 90 86 76
62 64 68 68 68 64 61 50 44 33 25 25 25 27 29 32 34 35 37 42 43 48 52 55 58 60 63 68 70 63 64 60 61 50 23 10 23 37 60 88 90 91 90 86 77
63 63 63 68 69 67 64 62 57 50 32 29 27 28 29 31 32 35 39 43 47 51 49 52 58 57 59 63 67 65 62 61 57 51 25 9 20 37 63 86 88 90 90 88 79
61 63 64 64 66 67 68 72 66 61 48 34 30 36 36 34 35 37 43 44 49 50 48 53 55 58 60 61 66 69 68 66 57 49 27 9 18 38 66 85 87 86 86 88 75
60 61 62 65 64 68 70 73 69 66 55 48 40 40 42 42 40 40 45 48 50 49 51 53 54 55 59 59 67 70 67 67 59 54 33 8 15 40 71 81 84 80 83 86 77
61 61 60 63 65 65 69 74 73 68 60 53 51 48 49 50 46 44 48 51 50 50 52 52 52 54 55 58 62 65 64 64 62 56 40 13 12 38 64 75 78 78 83 85 81
59 61 60 59 63 65 68 71 72 72 67 58 53 53 53 52 54 53 49 48 51 54 55 54 53 55 54 60 54 61 62 61 61 60 49 18 7 38 60 70 71 74 80 83 81
56 61 62 59 60 62 64 67 67 70 63 62 56 55 55 58 58 53 51 50 49 49 53 54 51 55 53 54 50 54 59 57 58 59 51 24 6 36 57 67 68 72 77 78 72
55 59 62 61 58 60 62 64 66 70 66 62 59 57 58 65 62 62 57 53 47 44 48 49 48 47 49 53 47 52 54 55 50 52 49 33 3 34 55 63 65 72 75 77 81
54 58 61 63 62 61 59 61 62 66 69 61 61 58 63 64 62 67 69 60 49 44 39 46 44 40 46 43 41 46 48 49 39 40 42 40 7 29 52 58 62 69 75 75 76
53 57 58 60 61 64 65 61 63 66 66 62 60 61 65 62 64 68 70 66 57 48 37 36 40 34 39 36 38 43 46 47 37 30 31 31 21 18 50 52 55 66 73 75 75
53 55 56 59 62 63 65 65 65 65 65 66 60 62 65 62 64 70 68 69 65 52 39 33 36 36 31 33 35 36 41 43 36 29 20 19 19 3 38 53 55 64 72 75 77
55 55 53 59 57 63 63 66 67 70 66 67 66 63 70 69 68 66 67 70 69 56 44 35 34 34 24 29 34 36 36 34 35 26 19 10 7 8 13 45 53 61 70 73 75
59 62 59 61 57 60 64 65 68 69 69 68 68 68 73 70 69 68 69 69 65 61 51 41 34 32 28 32 33 31 30 29 29 30 19 14 7 3 4 18 51 56 67 74 76
60 67 63 60 60 61 64 66 70 69 69 69 71 69 75 70 69 69 69 68 61 63 59 48 39 34 34 34 32 28 26 31 33 34 24 18 15 15 14 16 20 47 60 70 79
69 65 62 62 64 63 65 66 71 70 70 68 70 74 74 69 68 70 72 64 63 67 60 57 49 43 32 28 26 22 24 33 39 36 33 24 23 24 23 27 27 27 34 57 74
69 63 63 66 67 69 65 68 70 70 68 66 69 77 74 68 68 71 70 66 65 66 65 59 57 47 36 35 29 30 32 35 32 27 28 31 31 33 33 35 37 39 39 40 45
69 67 69 67 76 68 68 67 65 68 67 68 73 80 74 71 69 69 68 71 69 69 69 65 60 58 50 44 42 35 22 34 29 30 44 52 51 45 38 38 41 43 50 51 51
68 65 64 75 70 68 69 67 66 67 68 72 79 81 75 71 70 71 73 75 75 72 70 71 66 61 56 51 51 46 45 43 47 55 64 60 54 51 50 53 51 49 49 52 62
Wind_Direction
296 294 293 288 289 291 291 291 291 293 296 297 304 296 307 311 313 314 316 320 321 320 321 320 323 324 321 316 307 301 292 288 286 283 277 266 250 235 228 225 224 226 222 218 218
333 318 306 301 298 298 298 297 290 288 295 297 295 301 304 308 313 312 318 321 320 323 324 323 325 326 323 317 310 305 298 296 292 288 277 263 246 229 223 222 219 227 220 218 219
11 359 348 330 319 313 309 305 307 307 300 296 300 302 307 309 306 318 322 324 325 326 329 331 331 329 327 321 316 312 308 306 304 300 281 261 244 228 217 217 215 222 220 217 216
23 18 9 348 335 324 317 317 315 310 306 302 306 309 306 304 313 317 317 324 325 328 333 334 334 334 333 327 323 321 318 319 316 310 287 261 241 226 215 211 211 216 216 215 213
27 26 19 13 348 331 322 318 315 312 312 307 305 304 304 303 309 315 318 323 326 334 335 336 336 338 339 334 330 332 328 329 327 321 297 266 237 224 213 207 208 212 215 214 211
25 22 17 13 10 354 334 326 324 318 309 308 307 306 306 309 312 315 319 323 329 337 336 339 338 340 343 341 342 339 337 337 336 325 305 272 232 219 211 202 205 207 211 211 209
22 21 20 16 12 9 355 328 325 324 321 308 307 306 304 311 315 316 322 328 334 338 340 342 340 342 346 351 349 348 345 344 342 329 312 273 228 214 207 198 203 204 206 209 209
21 20 19 17 12 10 1 353 330 330 323 325 316 315 314 315 316 319 324 332 339 341 340 345 343 345 350 353 352 352 352 350 346 339 322 275 222 208 201 196 199 200 203 205 206
18 21 17 16 14 12 7 358 346 335 322 322 322 321 321 324 322 322 329 336 340 339 342 344 345 349 352 355 357 357 355 356 352 349 327 273 217 201 195 194 197 198 200 199 201
12 15 18 19 18 20 14 13 8 354 337 337 328 330 329 329 329 326 331 337 339 338 341 345 348 350 354 355 356 357 356 360 358 351 335 267 210 197 193 192 195 196 200 195 195
7 7 11 16 16 16 17 20 15 11 355 344 343 332 330 333 329 333 334 338 337 341 342 343 349 354 354 354 356 357 358 1 3 353 341 281 208 197 191 190 194 195 196 201 194
5 7 6 10 12 11 10 12 16 15 10 352 339 339 337 334 332 333 334 336 337 341 342 343 345 351 353 353 356 358 357 359 3 1 349 292 208 195 190 190 193 194 195 198 197
2 5 4 4 4 8 7 8 9 11 11 6 348 340 340 337 333 331 330 332 332 336 336 339 344 349 352 355 357 357 358 357 2 7 358 312 212 192 190 192 193 193 195 197 193
356 358 4 0 1 1 3 6 4 5 8 6 3 354 348 340 336 330 325 327 328 331 332 337 341 347 350 354 356 356 358 357 0 7 5 343 223 198 193 192 193 192 194 196 193
350 351 357 4 357 357 359 360 0 359 359 2 5 1 356 348 342 332 325 323 324 324 326 334 340 342 347 349 349 354 358 359 1 3 7 4 219 198 196 194 193 195 197 196 195
344 343 347 353 356 353 353 354 354 355 352 353 356 359 357 357 355 347 333 319 321 324 321 329 336 338 341 347 348 352 357 360 0 0 6 12 192 199 198 196 195 196 198 198 194
338 339 339 345 350 350 351 353 349 351 353 351 348 351 354 354 356 355 350 337 319 320 318 326 331 336 339 343 347 349 355 359 1 359 1 11 192 198 199 196 198 199 201 198 196
332 335 336 339 342 342 349 349 349 349 348 349 346 348 350 349 353 355 357 354 331 315 318 319 326 333 334 340 346 346 347 355 358 359 4 11 26 201 202 200 200 202 203 203 205
332 330 331 334 337 338 339 346 346 344 346 346 344 347 347 347 348 349 352 359 345 327 306 313 320 327 330 337 340 343 344 349 355 2 7 8 17 199 204 207 206 206 207 208 208
328 328 326 327 333 333 333 336 340 346 341 344 340 344 347 349 346 347 351 355 356 345 321 308 312 322 331 335 335 336 338 343 349 351 1 10 9 342 206 209 212 211 211 213 214
325 324 322 326 328 326 330 329 330 339 342 341 340 339 346 347 348 346 348 352 353 356 345 321 313 316 329 322 326 328 334 332 342 347 333 357 11 6 219 214 218 217 216 216 219
317 322 322 320 329 326 326 327 327 330 335 337 338 338 341 343 345 345 347 346 352 357 356 342 325 319 317 318 316 323 324 319 323 335 327 320 286 200 194 223 220 225 221 221 222
312 317 317 316 324 321 327 317 323 325 332 334 335 333 337 339 341 343 344 345 348 355 360 357 342 326 318 310 307 313 308 304 307 314 312 303 290 263 214 210 220 230 228 227 226
314 314 310 313 325 321 322 317 320 323 327 333 333 332 334 337 337 341 340 343 345 351 352 356 352 348 336 320 297 301 298 298 303 309 311 296 278 264 252 228 220 221 226 235 234
313 308 305 310 319 322 318 319 317 320 321 327 327 333 332 334 334 337 337 337 341 345 349 349 353 348 354 352 322 304 290 291 300 302 314 316 303 284 260 251 234 225 224 224 228
310 305 304 306 314 317 317 314 314 316 317 324 327 331 329 329 333 333 334 334 337 342 343 346 346 346 339 349 348 344 321 326 309 304 313 315 312 300 284 271 265 253 235 225 226
304 300 300 305 314 312 314 313 312 315 316 321 324 328 329 327 331 331 332 332 332 337 340 339 341 341 339 333 333 334 339 331 327 324 324 315 309 295 289 283 279 271 262 251 238
Height
10749 10745 10742 10739 10736 10733 10730 10727 10724 10720 10717 10715 10713 10710 10707 10703 10699 10694 10690 10685 10678 10672 10664 10654 10645 10633 10624 10614 10603 10595 10585 10576 10565 10557 10548 10549 10555 10562 10576 10594 10603 10616 10650 10672 10680
10744 10740 10736 10732 10729 10725 10722 10719 10716 10713 10709 10706 10705 10703 10701 10697 10693 10688 10684 10679 10672 10665 10655 10644 10635 10626 10613 10601 10589 10580 10566 10555 10543 10532 10521 10518 10522 10531 10552 10567 10589 10598 10630 10650 10664
10742 10737 10731 10726 10722 10719 10715 10713 10710 10706 10702 10699 10697 10696 10694 10690 10687 10682 10677 10673 10666 10657 10647 10636 10625 10613 10602 10589 10574 10561 10548 10535 10520 10509 10496 10493 10495 10510 10525 10546 10567 10581 10609 10632 10651
10742 10734 10729 10722 10717 10713 10710 10707 10704 10700 10697 10693 10691 10689 10688 10685 10681 10676 10672 10666 10659 10650 10639 10629 10617 10606 10591 10575 10563 10546 10532 10517 10502 10489 10478 10475 10481 10488 10506 10521 10549 10566 10595 10617 10640
10742 10735 10728 10719 10713 10708 10705 10702 10698 10695 10692 10689 10686 10685 10682 10679 10675 10670 10665 10660 10652 10642 10632 10621 10609 10595 10582 10566 10548 10534 10517 10503 10486 10473 10465 10462 10466 10474 10487 10507 10535 10558 10581 10603 10625
10744 10736 10728 10720 10712 10706 10702 10699 10694 10690 10688 10685 10682 10680 10676 10673 10669 10665 10660 10654 10645 10636 10626 10615 10602 10589 10573 10556 10541 10525 10512 10493 10478 10462 10455 10453 10455 10462 10474 10503 10522 10541 10568 10590 10611
10743 10736 10728 10720 10710 10703 10698 10694 10691 10686 10683 10680 10677 10675 10672 10669 10664 10659 10654 10647 10638 10629 10619 10608 10594 10581 10568 10551 10533 10519 10500 10486 10471 10455 10449 10446 10448 10454 10471 10493 10514 10538 10564 10585 10604
10742 10736 10727 10719 10710 10703 10695 10690 10687 10682 10679 10677 10675 10671 10668 10664 10659 10654 10649 10641 10632 10623 10614 10603 10589 10574 10557 10544 10530 10514 10498 10481 10464 10452 10444 10441 10443 10450 10463 10485 10504 10531 10551 10573 10595
10744 10736 10728 10720 10712 10703 10695 10688 10683 10678 10675 10673 10671 10667 10664 10660 10655 10649 10643 10636 10628 10618 10608 10597 10585 10571 10556 10540 10519 10503 10493 10478 10461 10449 10442 10438 10439 10445 10458 10479 10497 10522 10544 10565 10585
10745 10737 10730 10723 10715 10706 10699 10689 10682 10675 10672 10670 10668 10665 10660 10656 10650 10644 10637 10631 10623 10613 10603 10592 10581 10568 10553 10540 10528 10513 10495 10479 10464 10449 10441 10437 10438 10444 10456 10475 10495 10516 10540 10554 10571
10746 10738 10731 10723 10716 10710 10704 10694 10684 10676 10670 10668 10665 10661 10656 10652 10646 10640 10633 10625 10617 10609 10599 10589 10579 10568 10556 10543 10528 10511 10496 10480 10468 10452 10443 10440 10441 10446 10457 10474 10496 10511 10532 10553 10567
10748 10740 10732 10725 10718 10712 10705 10695 10685 10677 10671 10666 10663 10658 10653 10647 10641 10634 10628 10622 10614 10605 10596 10586 10577 10566 10555 10541 10528 10509 10495 10480 10470 10457 10446 10442 10444 10448 10459 10473 10492 10512 10533 10551 10570
10749 10742 10734 10724 10717 10711 10704 10694 10684 10677 10672 10665 10661 10655 10649 10643 10637 10630 10624 10617 10609 10602 10594 10585 10574 10565 10556 10541 10525 10514 10500 10486 10473 10459 10450 10446 10448 10452 10459 10472 10491 10515 10531 10550 10573
10747 10742 10737 10728 10719 10711 10703 10694 10687 10679 10671 10666 10660 10653 10647 10640 10633 10626 10620 10613 10606 10599 10591 10584 10574 10565 10554 10544 10532 10521 10507 10492 10477 10466 10456 10451 10452 10459 10467 10480 10496 10514 10529 10546 10564
10745 10740 10735 10729 10721 10712 10703 10695 10688 10681 10674 10666 10658 10651 10645 10638 10629 10621 10613 10606 10598 10592 10586 10581 10571 10562 10555 10548 10538 10526 10513 10499 10484 10473 10463 10456 10457 10465 10475 10487 10502 10519 10531 10547 10562
10743 10737 10732 10728 10722 10714 10704 10697 10691 10684 10677 10667 10659 10651 10644 10637 10627 10617 10608 10600 10593 10586 10578 10576 10570 10561 10555 10548 10540 10531 10518 10507 10493 10482 10471 10464 10463 10471 10483 10495 10509 10520 10534 10546 10560
10742 10736 10730 10724 10720 10714 10707 10699 10689 10683 10677 10668 10659 10651 10642 10633 10623 10615 10605 10595 10587 10583 10574 10568 10567 10560 10552 10544 10539 10530 10522 10512 10503 10492 10483 10475 10473 10479 10491 10502 10513 10522 10533 10546 10556
10739 10733 10725 10718 10714 10709 10706 10699 10693 10684 10675 10668 10659 10651 10641 10631 10621 10612 10602 10592 10581 10575 10572 10565 10563 10559 10553 10547 10542 10536 10530 10524 10514 10505 10495 10486 10484 10489 10500 10508 10518 10528 10536 10546 10555
10736 10730 10723 10716 10710 10704 10698 10695 10689 10681 10674 10666 10658 10649 10639 10630 10621 10611 10600 10588 10578 10568 10563 10561 10555 10555 10550 10545 10540 10535 10529 10526 10519 10514 10505 10499 10496 10499 10510 10520 10527 10533 10537 10544 10551
10733 10726 10721 10713 10704 10699 10693 10687 10683 10678 10671 10664 10657 10648 10638 10628 10619 10609 10598 10585 10575 10564 10558 10554 10549 10549 10545 10541 10538 10534 10529 10525 10523 10517 10514 10509 10505 10504 10510 10518 10525 10530 10534 10539 10545
10727 10721 10715 10710 10702 10694 10688 10680 10675 10672 10667 10659 10650 10642 10634 10624 10615 10607 10596 10584 10573 10563 10555 10549 10544 10541 10541 10537 10535 10529 10527 10524 10521 10518 10515 10514 10509 10509 10510 10517 10522 10524 10529 10535 10542
10718 10714 10709 10702 10698 10690 10681 10676 10669 10664 10658 10652 10644 10635 10627 10619 10610 10602 10594 10584 10572 10562 10553 10545 10540 10535 10534 10532 10529 10527 10522 10520 10518 10517 10515 10513 10512 10509 10509 10510 10513 10518 10523 10528 10534
10711 10704 10700 10696 10688 10682 10677 10665 10661 10656 10651 10644 10636 10628 10620 10612 10605 10597 10589 10580 10571 10561 10552 10544 10539 10530 10527 10525 10524 10522 10519 10513 10512 10511 10511 10512 10511 10508 10507 10505 10505 10508 10511 10513 10517
10701 10695 10688 10685 10679 10673 10667 10660 10653 10648 10642 10637 10629 10622 10614 10605 10597 10591 10583 10575 10566 10557 10549 10542 10535 10529 10523 10518 10514 10514 10514 10509 10506 10503 10502 10504 10503 10501 10499 10498 10497 10496 10496 10498 10501
10691 10687 10681 10676 10670 10664 10658 10653 10644 10638 10632 10627 10621 10613 10605 10599 10589 10582 10575 10565 10561 10553 10546 10539 10531 10525 10520 10512 10508 10506 10504 10502 10499 10497 10494 10494 10492 10493 10492 10488 10487 10485 10484 10482 10481
10681 10675 10672 10666 10660 10654 10649 10644 10636 10629 10622 10617 10613 10606 10598 10590 10583 10574 10566 10559 10551 10542 10536 10531 10525 10517 10510 10507 10502 10497 10495 10490 10488 10486 10483 10481 10479 10478 10478 10476 10474 10473 10471 10468 10465
10668 10664 10660 10654 10647 10643 10637 10632 10625 10619 10612 10607 10599 10595 10589 10581 10575 10567 10559 10551 10543 10534 10528 10521 10517 10511 10502 10496 10491 10487 10482 10479 10476 10474 10469 10464 10462 10460 10457 10456 10456 10453 10452 10451 10449